KI7JYE Weather Reports


Display with metric or nautical units.
time (UTC)temp
F
wind
direction
speed
MPH
gust
MPH
rain 1hr
in
rain 24hr
in
rain mn
in
humidity
%
barometer
mb
20260503190228 84 244 0.0 1.0 0.00 0.00 0.00 42 1009.1
20260503185725 84 245 0.0 1.0 0.00 0.00 0.00 43 1009.0
20260503185220 82 193 1.0 2.0 0.00 0.00 0.00 44 1009.4
20260503184715 82 242 0.0 0.0 0.00 0.00 0.00 45 1009.2
20260503184212 82 293 0.0 1.0 0.00 0.00 0.00 45 1009.5
20260503183708 82 243 0.0 0.0 0.00 0.00 0.00 44 1009.5
20260503183206 82 231 0.0 1.0 0.00 0.00 0.00 45 1009.5
20260503182704 81 249 3.0 3.0 0.00 0.00 0.00 45 1009.6
20260503182202 80 219 0.0 0.0 0.00 0.00 0.00 45 1009.5
20260503181658 80 196 0.0 1.0 0.00 0.00 0.00 48 1009.7
20260503181155 80 351 1.0 3.0 0.00 0.00 0.00 48 1009.5
20260503180652 80 315 1.0 5.0 0.00 0.00 0.00 45 1009.9
20260503180150 80 2 1.0 1.0 0.00 0.00 0.00 47 1009.7
20260503175647 80 224 0.0 1.0 0.00 0.00 0.00 46 1009.9
20260503175144 78 222 0.0 0.0 0.00 0.00 0.00 51 1009.7
20260503174641 79 145 0.0 0.0 0.00 0.00 0.00 50 1009.8
20260503174138 78 311 0.0 0.0 0.00 0.00 0.00 52 1010.0
20260503173633 78 227 0.0 1.0 0.00 0.00 0.00 47 1009.8
20260503173130 77 251 0.0 0.0 0.00 0.00 0.00 51 1009.7
20260503172626 78 252 1.0 1.0 0.00 0.00 0.00 49 1009.7
20260503172124 77 225 0.0 0.0 0.00 0.00 0.00 51 1009.9
20260503171620 78 294 3.0 3.0 0.00 0.00 0.00 46 1010.0
20260503171117 76 166 4.0 5.0 0.00 0.00 0.00 49 1009.9
20260503170615 77 232 1.0 2.0 0.00 0.00 0.00 49 1009.9
20260503170111 76 136 0.0 1.0 0.00 0.00 0.00 51 1009.8
20260503151006 60 225 0.0 0.0 0.00 0.00 0.00 86 1010.5
20260503150503 60 229 0.0 0.0 0.00 0.00 0.00 87 1010.7
20260503131356 51 232 0.0 0.0 0.00 0.00 0.00 99 1010.1
20260503130853 51 244 0.0 0.0 0.00 0.00 0.00 99 1010.0
20260503130350 51 221 0.0 0.0 0.00 0.00 0.00 99 1010.1
20260503110744 51 237 0.0 0.0 0.00 0.00 0.00 98 1010.4
20260503110241 51 242 0.0 0.0 0.00 0.00 0.00 98 1010.3
20260503100207 52 226 0.0 0.0 0.00 0.00 0.00 97 1010.7
20260503090132 53 235 0.0 0.0 0.00 0.00 0.00 97 1011.1
20260503081602 53 237 0.0 0.0 0.00 0.00 0.00 95 1011.5
20260503081059 54 237 0.0 0.0 0.00 0.00 0.00 95 1011.5
20260503080555 54 240 0.0 0.0 0.00 0.00 0.00 95 1011.3
20260503072529 55 226 0.0 0.0 0.00 0.00 0.00 92 1011.4
20260503072026 56 242 0.0 1.0 0.00 0.00 0.00 92 1011.3
20260503071523 56 225 0.0 0.0 0.00 0.00 0.00 93 1011.4
20260503071020 56 219 0.0 0.0 0.00 0.00 0.00 93 1011.5
20260503070516 56 220 0.0 0.0 0.00 0.00 0.00 93 1011.3
20260503054940 59 236 0.0 0.0 0.00 0.00 0.00 88 1011.4
20260503054436 59 242 0.0 0.0 0.00 0.00 0.00 86 1011.1
20260503053934 60 219 0.0 0.0 0.00 0.00 0.00 85 1011.2
20260503053432 61 241 0.0 0.0 0.00 0.00 0.00 84 1011.5
20260503052928 61 235 0.0 0.0 0.00 0.00 0.00 83 1011.7
20260503052425 61 212 0.0 0.0 0.00 0.00 0.00 83 1011.6
20260503051921 62 221 0.0 0.0 0.00 0.00 0.00 82 1011.4
20260503051417 63 195 3.0 3.0 0.00 0.00 0.00 80 1011.7
20260503050915 62 182 3.0 3.0 0.00 0.00 0.00 81 1011.4
20260503050410 61 199 1.0 2.0 0.00 0.00 0.00 84 1011.3
20260503045908 61 221 0.0 0.0 0.00 0.00 0.00 84 1011.4
20260503045406 61 225 0.0 0.0 0.00 0.00 0.00 83 1011.1
20260503044902 61 232 0.0 0.0 0.00 0.00 0.00 83 1010.7
20260503044359 61 233 0.0 0.0 0.00 0.00 0.00 83 1011.2
20260503043856 61 237 0.0 0.0 0.00 0.00 0.00 83 1011.0
20260503043353 61 219 0.0 0.0 0.00 0.00 0.00 83 1010.8
20260503042849 61 220 0.0 0.0 0.00 0.00 0.00 83 1011.1
20260503042346 61 235 0.0 0.0 0.00 0.00 0.00 83 1011.0
20260503041842 61 209 0.0 0.0 0.00 0.00 0.00 83 1011.3
20260503041340 61 220 0.0 0.0 0.00 0.00 0.00 83 1010.8
20260503040837 62 236 0.0 0.0 0.00 0.00 0.00 82 1010.8
20260503040335 62 261 0.0 0.0 0.00 0.00 0.00 82 1011.0
20260503035831 61 239 0.0 0.0 0.00 0.00 0.00 83 1010.8
20260503035328 61 235 0.0 0.0 0.00 0.00 0.00 83 1010.7
20260503034826 61 223 0.0 0.0 0.00 0.00 0.00 83 1011.0
20260503034323 62 234 0.0 0.0 0.00 0.00 0.00 83 1010.7
20260503033820 62 238 0.0 0.0 0.00 0.00 0.00 82 1010.8
20260503033317 62 239 0.0 0.0 0.00 0.00 0.00 81 1010.7
20260503032815 62 242 0.0 0.0 0.00 0.00 0.00 81 1010.5
20260503032314 63 239 0.0 0.0 0.00 0.00 0.00 79 1010.7
20260503031811 64 238 0.0 0.0 0.00 0.00 0.00 77 1010.6
20260503031309 64 227 0.0 0.0 0.00 0.00 0.00 77 1010.5
20260503030805 64 225 0.0 0.0 0.00 0.00 0.00 76 1010.3
20260503030301 64 233 0.0 0.0 0.00 0.00 0.00 76 1010.3
20260503025758 64 232 0.0 0.0 0.00 0.00 0.00 76 1010.5
20260503025256 64 264 0.0 0.0 0.00 0.00 0.00 76 1010.7
20260503024752 64 249 3.0 3.0 0.00 0.00 0.00 75 1010.7
20260503024249 65 238 1.0 2.0 0.00 0.00 0.00 75 1010.8
20260503023746 66 257 2.0 3.0 0.00 0.00 0.00 73 1011.0
20260503023243 66 246 0.0 0.0 0.00 0.00 0.00 73 1011.1
20260503022739 66 236 1.0 1.0 0.00 0.00 0.00 74 1011.1
20260503022234 66 243 0.0 1.0 0.00 0.00 0.00 73 1011.5
20260503021731 66 240 0.0 0.0 0.00 0.00 0.00 73 1011.5
20260503021227 66 228 0.0 1.0 0.00 0.00 0.00 73 1011.8
20260503020725 66 227 0.0 0.0 0.00 0.00 0.00 73 1011.7
20260503020222 66 243 0.0 0.0 0.00 0.00 0.00 73 1012.0
20260503015719 66 117 5.0 8.0 0.00 0.00 0.00 72 1011.7
20260503015216 67 216 2.0 2.0 0.00 0.00 0.00 71 1011.8
20260503014711 68 197 2.0 2.0 0.00 0.00 0.00 71 1011.3
20260503014210 68 226 1.0 1.0 0.00 0.00 0.00 70 1011.2
20260503013706 68 229 0.0 0.0 0.00 0.00 0.00 70 1010.8
20260503013204 68 226 0.0 0.0 0.00 0.00 0.00 69 1010.7
20260503012701 68 227 0.0 1.0 0.00 0.00 0.00 69 1011.0
20260503012158 68 191 1.0 2.0 0.00 0.00 0.00 69 1010.7
20260503011654 68 239 0.0 0.0 0.00 0.00 0.00 68 1010.5
20260503011151 68 203 1.0 1.0 0.00 0.00 0.00 69 1011.0
20260503010648 68 211 0.0 0.0 0.00 0.00 0.00 69 1010.4
20260503010145 68 205 2.0 3.0 0.00 0.00 0.00 69 1010.7
20260503005642 68 228 0.0 1.0 0.00 0.00 0.00 70 1010.7
20260503005139 68 229 1.0 2.0 0.00 0.00 0.00 70 1010.4
20260503004636 68 222 1.0 2.0 0.00 0.00 0.00 70 1010.4
20260503004134 67 202 2.0 2.0 0.00 0.00 0.00 72 1010.4
20260503003631 67 234 1.0 1.0 0.00 0.00 0.00 71 1010.2
20260503003128 67 223 0.0 0.0 0.00 0.00 0.00 70 1010.3
20260503002625 68 198 0.0 0.0 0.00 0.00 0.00 69 1010.2
20260503002122 68 229 0.0 0.0 0.00 0.00 0.00 68 1010.2
20260503001618 69 219 0.0 0.0 0.00 0.00 0.00 68 1010.2
20260503001115 68 227 0.0 0.0 0.00 0.00 0.00 69 1010.3
20260503000612 68 237 0.0 0.0 0.00 0.00 0.00 69 1010.5
20260503000109 68 228 0.0 0.0 0.00 0.00 0.00 68 1010.5
20260502235606 68 233 0.0 0.0 0.00 0.00 0.00 67 1010.4
20260502235104 68 229 0.0 0.0 0.00 0.00 0.00 67 1010.7
20260502234559 68 187 1.0 3.0 0.00 0.00 0.00 68 1010.4
20260502234057 68 236 0.0 0.0 0.00 0.00 0.00 67 1010.4
20260502233552 69 227 0.0 1.0 0.00 0.00 0.00 66 1010.6
20260502233049 68 236 1.0 2.0 0.00 0.00 0.00 68 1011.1
20260502232545 70 220 0.0 1.0 0.00 0.00 0.00 66 1011.0
20260502232043 70 233 0.0 0.0 0.00 0.00 0.00 64 1010.8
20260502231539 69 223 1.0 2.0 0.00 0.00 0.00 65 1011.0
20260502231038 69 215 1.0 2.0 0.00 0.00 0.00 66 1011.0
20260502230536 70 236 1.0 1.0 0.00 0.00 0.00 63 1011.2
20260502230034 71 226 0.0 1.0 0.00 0.00 0.00 61 1011.2
20260502225529 69 247 2.0 2.0 0.00 0.00 0.00 62 1011.3
20260502225026 68 210 0.0 0.0 0.00 0.00 0.00 65 1011.4
20260502224522 68 150 4.0 5.0 0.00 0.00 0.00 63 1011.4
20260502224020 69 234 0.0 0.0 0.00 0.00 0.00 63 1011.3
20260502223517 70 229 0.0 0.0 0.00 0.00 0.00 60 1011.4
20260502223015 69 260 3.0 3.0 0.00 0.00 0.00 61 1011.6
20260502222512 69 301 2.0 2.0 0.00 0.00 0.00 61 1011.7
20260502222009 69 267 3.0 3.0 0.00 0.00 0.00 62 1011.7
20260502221504 69 254 2.0 2.0 0.00 0.00 0.00 61 1011.8
20260502221002 69 246 1.0 2.0 0.00 0.00 0.00 62 1011.7
20260502220457 69 233 3.0 3.0 0.00 0.00 0.00 62 1011.8
20260502215954 69 185 3.0 5.0 0.00 0.00 0.00 64 1011.9
20260502215452 69 234 2.0 2.0 0.00 0.00 0.00 63 1012.0
20260502214948 69 236 3.0 3.0 0.00 0.00 0.00 62 1012.3
20260502214445 68 212 5.0 6.0 0.00 0.00 0.00 63 1012.0
20260502213942 68 207 1.0 1.0 0.00 0.00 0.00 66 1012.3
20260502213439 67 218 3.0 5.0 0.00 0.00 0.00 66 1012.2
20260502212938 65 176 1.0 3.0 0.00 0.00 0.00 70 1012.5
20260502212436 66 209 1.0 1.0 0.00 0.00 0.00 69 1012.4
20260502211933 64 175 3.0 3.0 0.00 0.00 0.00 69 1012.4
20260502211429 65 224 2.0 3.0 0.00 0.00 0.00 69 1012.3
20260502210926 66 180 4.0 6.0 0.00 0.00 0.00 67 1012.6
20260502210423 66 173 5.0 6.0 0.00 0.00 0.00 67 1012.7
20260502205920 68 224 0.0 1.0 0.00 0.00 0.00 66 1012.7
20260502205416 69 233 0.0 0.0 0.00 0.00 0.00 63 1012.8
20260502204914 65 247 1.0 2.0 0.00 0.00 0.00 66 1012.8
20260502204410 66 236 1.0 2.0 0.00 0.00 0.00 67 1013.1
20260502203909 68 266 2.0 2.0 0.00 0.00 0.00 63 1013.0
20260502203406 64 206 0.0 0.0 0.00 0.00 0.00 67 1013.0
20260502202901 66 348 3.0 5.0 0.00 0.00 0.00 67 1013.2
20260502202358 66 240 3.0 3.0 0.00 0.00 0.00 65 1013.2
20260502201856 67 234 1.0 2.0 0.00 0.00 0.00 64 1013.4
20260502201352 66 240 1.0 1.0 0.00 0.00 0.00 66 1013.4
20260502200849 64 244 0.0 0.0 0.00 0.00 0.00 67 1013.5
20260502200344 63 230 1.0 2.0 0.00 0.00 0.00 69 1013.8
20260502195843 65 238 1.0 1.0 0.00 0.00 0.00 68 1013.7
20260502195339 64 288 5.0 6.0 0.00 0.00 0.00 69 1013.9
20260502194836 63 239 2.0 3.0 0.00 0.00 0.00 69 1013.8
20260502194333 63 287 1.0 2.0 0.00 0.00 0.00 70 1013.7
20260502193828 65 244 2.0 2.0 0.00 0.00 0.00 68 1013.9
20260502193326 63 313 5.0 7.0 0.00 0.00 0.00 69 1013.9
20260502192821 63 214 1.0 1.0 0.00 0.00 0.00 71 1014.1
20260502192319 61 203 0.0 0.0 0.00 0.00 0.00 73 1014.2
20260502191816 60 230 0.0 0.0 0.00 0.00 0.00 77 1014.1
20260502191314 59 133 3.0 3.0 0.00 0.00 0.00 76 1014.4
20260502190811 58 163 2.0 3.0 0.00 0.00 0.00 78 1014.6